Time,TemperatureF,DewpointF,PressureIn,WindDirection,WindDirectionDegrees,WindSpeedMPH,WindSpeedGustMPH,Humidity,HourlyPrecipIn,Conditions,Clouds,dailyrainin,SoftwareType,DateUTC
2013-08-04 00:00:00,61.5,53.5,29.85,West,261,0.0,0.0,75,0.00,FEW,,0.00,WeatherDisplay:10.37,2013-08-04 04:00:00,
2013-08-04 00:10:00,60.7,53.1,29.85,West,261,0.0,0.0,76,0.00,FEW,,0.00,WeatherDisplay:10.37,2013-08-04 04:10:00,
2013-08-04 00:30:00,59.8,53.6,29.85,West,261,0.0,0.0,80,0.00,FEW,,0.00,WeatherDisplay:10.37,2013-08-04 04:30:00,
2013-08-04 00:40:00,59.3,53.5,29.85,West,261,0.0,0.0,81,0.00,FEW,,0.00,WeatherDisplay:10.37,2013-08-04 04:40:00,
2013-08-04 00:50:00,59.1,53.3,29.85,West,261,0.0,0.0,81,0.00,FEW,,0.00,WeatherDisplay:10.37,2013-08-04 04:50:00,
2013-08-04 01:00:00,58.8,53.6,29.85,West,261,0.0,0.0,83,0.00,FEW,,0.00,WeatherDisplay:10.37,2013-08-04 05:00:00,
2013-08-04 01:10:00,58.4,53.2,29.85,West,261,0.0,0.0,83,0.00,FEW,,0.00,WeatherDisplay:10.37,2013-08-04 05:10:00,
2013-08-04 01:20:00,58.0,53.5,29.85,West,261,0.0,0.0,85,0.00,FEW,,0.00,WeatherDisplay:10.37,2013-08-04 05:20:00,
2013-08-04 01:30:00,57.8,53.3,29.85,West,261,0.0,2.0,85,0.00,FEW,,0.00,WeatherDisplay:10.37,2013-08-04 05:30:00,
2013-08-04 01:40:00,57.6,53.7,29.84,West,261,0.0,2.0,87,0.00,FEW,,0.00,WeatherDisplay:10.37,2013-08-04 05:40:00,
2013-08-04 01:50:00,57.3,53.5,29.84,West,261,0.0,0.0,87,0.00,FEW,,0.00,WeatherDisplay:10.37,2013-08-04 05:50:00,
2013-08-04 02:00:00,57.2,53.4,29.84,West,261,0.0,0.0,87,0.00,FEW,,0.00,WeatherDisplay:10.37,2013-08-04 06:00:00,
2013-08-04 02:10:00,57.1,53.6,29.84,West,261,0.0,0.0,88,0.00,FEW,,0.00,WeatherDisplay:10.37,2013-08-04 06:10:00,
2013-08-04 02:20:00,57.2,53.7,29.85,West,261,0.0,0.0,88,0.00,FEW,,0.00,WeatherDisplay:10.37,2013-08-04 06:20:00,
2013-08-04 02:30:00,57.5,54.0,29.85,West,261,0.0,0.0,88,0.00,FEW,,0.00,WeatherDisplay:10.37,2013-08-04 06:30:00,
2013-08-04 02:40:00,57.3,53.8,29.85,West,261,0.0,0.0,88,0.00,FEW,,0.00,WeatherDisplay:10.37,2013-08-04 06:40:00,
2013-08-04 02:50:00,57.2,53.7,29.85,West,261,0.0,2.0,88,0.00,FEW,,0.00,WeatherDisplay:10.37,2013-08-04 06:50:00,
2013-08-04 03:00:00,57.0,53.5,29.85,West,261,0.0,0.0,88,0.00,FEW,,0.00,WeatherDisplay:10.37,2013-08-04 07:00:00,
2013-08-04 03:10:00,57.2,53.6,29.85,West,261,0.0,0.0,88,0.00,SCT,,0.00,WeatherDisplay:10.37,2013-08-04 07:10:00,
2013-08-04 03:20:00,57.0,53.7,29.86,West,261,0.0,0.0,89,0.00,SCT,,0.00,WeatherDisplay:10.37,2013-08-04 07:20:00,
2013-08-04 03:30:00,56.7,53.5,29.86,West,261,0.0,0.0,89,0.00,SCT,,0.00,WeatherDisplay:10.37,2013-08-04 07:30:00,
2013-08-04 03:40:00,56.4,53.5,29.86,West,261,0.0,0.0,90,0.00,SCT,,0.00,WeatherDisplay:10.37,2013-08-04 07:40:00,
2013-08-04 03:50:00,56.4,53.5,29.85,West,261,0.0,2.0,90,0.00,SCT,,0.00,WeatherDisplay:10.37,2013-08-04 07:50:00,
2013-08-04 04:00:00,56.4,53.5,29.85,West,261,0.0,3.0,90,0.00,SCT,,0.00,WeatherDisplay:10.37,2013-08-04 08:00:00,
2013-08-04 04:10:00,56.6,53.7,29.85,West,261,0.0,0.0,90,0.00,SCT,,0.00,WeatherDisplay:10.37,2013-08-04 08:10:00,
2013-08-04 04:20:00,56.5,53.6,29.85,West,261,0.0,2.0,90,0.00,SCT,,0.00,WeatherDisplay:10.37,2013-08-04 08:20:00,
2013-08-04 04:30:00,56.6,53.7,29.85,West,261,0.0,0.0,90,0.00,SCT,,0.00,WeatherDisplay:10.37,2013-08-04 08:30:00,
2013-08-04 04:40:00,56.7,53.8,29.85,West,261,0.0,0.0,90,0.00,SCT,,0.00,WeatherDisplay:10.37,2013-08-04 08:40:00,
2013-08-04 04:50:00,56.7,53.5,29.85,West,261,0.0,0.0,89,0.00,SCT,,0.00,WeatherDisplay:10.37,2013-08-04 08:50:00,
2013-08-04 05:00:00,56.5,53.6,29.85,West,261,0.0,0.0,90,0.00,SCT,,0.00,WeatherDisplay:10.37,2013-08-04 09:00:00,
2013-08-04 05:10:00,56.5,53.6,29.85,West,261,0.0,0.0,90,0.00,BKN,,0.00,WeatherDisplay:10.37,2013-08-04 09:10:00,
2013-08-04 05:20:00,56.3,53.4,29.85,West,261,0.0,0.0,90,0.00,BKN,,0.00,WeatherDisplay:10.37,2013-08-04 09:20:00,
2013-08-04 05:30:00,56.2,53.3,29.85,West,261,0.0,0.0,90,0.00,BKN,,0.00,WeatherDisplay:10.37,2013-08-04 09:30:00,
2013-08-04 05:40:00,56.2,53.3,29.85,West,261,0.0,0.0,90,0.00,BKN,,0.00,WeatherDisplay:10.37,2013-08-04 09:40:00,
2013-08-04 05:50:00,55.9,53.0,29.85,West,261,0.0,0.0,90,0.00,BKN,,0.00,WeatherDisplay:10.37,2013-08-04 09:50:00,
2013-08-04 06:00:00,55.9,53.3,29.86,West,261,0.0,0.0,91,0.00,BKN,,0.00,WeatherDisplay:10.37,2013-08-04 10:00:00,
2013-08-04 06:10:00,56.2,53.6,29.86,West,261,0.0,0.0,91,0.00,BKN,,0.00,WeatherDisplay:10.37,2013-08-04 10:10:00,
2013-08-04 06:20:00,56.5,53.9,29.86,West,261,0.0,0.0,91,0.00,BKN,,0.00,WeatherDisplay:10.37,2013-08-04 10:20:00,
2013-08-04 06:30:00,56.8,54.2,29.86,West,261,0.0,0.0,91,0.00,BKN,,0.00,WeatherDisplay:10.37,2013-08-04 10:30:00,
2013-08-04 06:40:00,58.0,55.1,29.86,West,261,0.0,2.0,90,0.00,BKN,,0.00,WeatherDisplay:10.37,2013-08-04 10:40:00,
2013-08-04 06:50:00,59.9,56.1,29.86,West,261,0.0,0.0,87,0.00,BKN,,0.00,WeatherDisplay:10.37,2013-08-04 10:50:00,
2013-08-04 07:00:00,60.9,56.7,29.86,West,261,0.0,0.0,86,0.00,BKN,,0.00,WeatherDisplay:10.37,2013-08-04 11:00:00,
2013-08-04 07:10:00,61.7,57.1,29.86,West,261,1.0,2.0,85,0.00,BKN,,0.00,WeatherDisplay:10.37,2013-08-04 11:10:00,
2013-08-04 07:20:00,62.1,57.2,29.86,West,261,0.0,2.0,84,0.00,BKN,,0.00,WeatherDisplay:10.37,2013-08-04 11:20:00,
2013-08-04 07:30:00,62.8,57.6,29.86,West,261,0.0,2.0,83,0.00,BKN,,0.00,WeatherDisplay:10.37,2013-08-04 11:30:00,
2013-08-04 07:40:00,64.5,57.5,29.87,NW,322,1.0,6.0,78,0.00,BKN,,0.00,WeatherDisplay:10.37,2013-08-04 11:40:00,
2013-08-04 07:50:00,64.6,57.6,29.87,NNW,336,0.0,3.0,78,0.00,BKN,,0.00,WeatherDisplay:10.37,2013-08-04 11:50:00,
2013-08-04 08:00:00,64.4,57.4,29.86,NNW,329,1.0,6.0,78,0.00,BKN,,0.00,WeatherDisplay:10.37,2013-08-04 12:00:00,
2013-08-04 08:10:00,64.8,57.8,29.86,NNW,329,0.0,6.0,78,0.00,BKN,,0.00,WeatherDisplay:10.37,2013-08-04 12:10:00,
2013-08-04 08:20:00,64.8,57.8,29.86,NNW,331,0.0,5.0,78,0.00,BKN,,0.00,WeatherDisplay:10.37,2013-08-04 12:20:00,
2013-08-04 08:30:00,65.4,59.5,29.86,NNW,329,1.0,3.0,81,0.00,BKN,,0.00,WeatherDisplay:10.37,2013-08-04 12:30:00,
2013-08-04 08:40:00,65.6,58.6,29.87,NNW,329,1.0,2.0,78,0.00,BKN,,0.00,WeatherDisplay:10.37,2013-08-04 12:40:00,
2013-08-04 08:50:00,66.6,59.5,29.87,NNW,329,0.0,2.0,78,0.00,BKN,,0.00,WeatherDisplay:10.37,2013-08-04 12:50:00,
2013-08-04 09:00:00,67.2,59.0,29.87,NNE,21,2.0,5.0,75,0.00,SCT,,0.00,WeatherDisplay:10.37,2013-08-04 13:00:00,
2013-08-04 09:10:00,67.9,59.3,29.87,NNW,338,0.0,3.0,74,0.00,SCT,,0.00,WeatherDisplay:10.37,2013-08-04 13:10:00,
2013-08-04 09:20:00,69.0,59.2,29.86,NNW,330,10.0,12.0,71,0.00,SCT,,0.00,WeatherDisplay:10.37,2013-08-04 13:20:00,
2013-08-04 09:30:00,68.9,59.5,29.86,WNW,301,6.0,10.0,72,0.00,SCT,,0.00,WeatherDisplay:10.37,2013-08-04 13:30:00,
2013-08-04 09:40:00,69.5,59.7,29.86,NNW,337,7.0,14.0,71,0.00,SCT,,0.00,WeatherDisplay:10.37,2013-08-04 13:40:00,
2013-08-04 09:50:00,69.7,59.9,29.86,WNW,289,10.0,15.0,71,0.00,SCT,,0.00,WeatherDisplay:10.37,2013-08-04 13:50:00,
2013-08-04 09:59:00,69.5,59.7,29.86,NW,309,5.0,15.0,71,0.00,SCT,,0.00,WeatherDisplay:10.37,2013-08-04 13:59:00,
2013-08-04 10:10:00,69.3,59.1,29.86,West,278,7.0,8.0,70,0.00,SCT,,0.00,WeatherDisplay:10.37,2013-08-04 14:10:00,
2013-08-04 10:20:00,70.2,59.6,29.87,NW,319,9.0,15.0,69,0.00,SCT,,0.00,WeatherDisplay:10.37,2013-08-04 14:20:00,
2013-08-04 10:30:00,70.8,59.7,29.86,NW,317,8.0,14.0,68,0.00,SCT,,0.00,WeatherDisplay:10.37,2013-08-04 14:30:00,
2013-08-04 10:39:00,70.8,59.3,29.86,NW,309,9.0,16.0,67,0.00,SCT,,0.00,WeatherDisplay:10.37,2013-08-04 14:39:00,
2013-08-04 10:50:00,71.0,59.9,29.86,WNW,294,9.0,16.0,68,0.00,SCT,,0.00,WeatherDisplay:10.37,2013-08-04 14:50:00,
2013-08-04 11:00:00,72.5,60.5,29.86,WNW,288,5.0,15.0,66,0.00,SCT,,0.00,WeatherDisplay:10.37,2013-08-04 15:00:00,
2013-08-04 11:10:00,71.8,59.8,29.86,WNW,297,10.0,18.0,66,0.00,BKN,,0.00,WeatherDisplay:10.37,2013-08-04 15:10:00,
2013-08-04 11:20:00,72.8,59.9,29.86,WNW,291,10.0,15.0,64,0.00,BKN,,0.00,WeatherDisplay:10.37,2013-08-04 15:20:00,
2013-08-04 11:30:00,73.5,59.2,29.86,WNW,300,12.0,15.0,61,0.00,BKN,,0.00,WeatherDisplay:10.37,2013-08-04 15:30:00,
2013-08-04 11:40:00,73.0,59.7,29.86,WNW,301,9.0,23.0,63,0.00,BKN,,0.00,WeatherDisplay:10.37,2013-08-04 15:40:00,
2013-08-04 11:49:00,73.6,60.2,29.86,NNW,329,8.0,20.0,63,0.00,BKN,,0.00,WeatherDisplay:10.37,2013-08-04 15:49:00,
2013-08-04 12:00:00,73.8,59.0,29.86,WNW,302,6.0,16.0,60,0.00,BKN,,0.00,WeatherDisplay:10.37,2013-08-04 16:00:00,
2013-08-04 12:09:00,74.2,58.5,29.85,WNW,300,8.0,21.0,58,0.00,BKN,,0.00,WeatherDisplay:10.37,2013-08-04 16:09:00,
2013-08-04 12:20:00,74.3,60.0,29.85,WNW,287,3.0,10.0,61,0.00,BKN,,0.00,WeatherDisplay:10.37,2013-08-04 16:20:00,
2013-08-04 12:30:00,73.7,58.0,29.85,NNW,341,8.0,15.0,58,0.00,BKN,,0.00,WeatherDisplay:10.37,2013-08-04 16:30:00,
2013-08-04 12:40:00,72.3,58.1,29.85,WNW,303,9.0,15.0,61,0.00,BKN,,0.00,WeatherDisplay:10.37,2013-08-04 16:40:00,
2013-08-04 12:50:00,73.2,59.0,29.85,NW,319,6.0,12.0,61,0.00,BKN,,0.00,WeatherDisplay:10.37,2013-08-04 16:50:00,
2013-08-04 13:00:00,72.8,59.5,29.85,NW,307,7.0,10.0,63,0.00,BKN,,0.00,WeatherDisplay:10.37,2013-08-04 17:00:00,
2013-08-04 13:10:00,71.1,59.2,29.84,NW,325,8.0,14.0,66,0.00,BKN,,0.00,WeatherDisplay:10.37,2013-08-04 17:10:00,
2013-08-04 13:19:00,69.5,58.9,29.85,WNW,303,7.0,21.0,69,0.00,BKN,,0.00,WeatherDisplay:10.37,2013-08-04 17:19:00,
2013-08-04 13:30:00,70.2,58.8,29.85,WNW,293,6.0,12.0,67,0.00,BKN,,0.00,WeatherDisplay:10.37,2013-08-04 17:30:00,
2013-08-04 13:39:00,71.5,59.6,29.85,West,281,7.0,15.0,66,0.00,BKN,,0.00,WeatherDisplay:10.37,2013-08-04 17:39:00,
2013-08-04 13:50:00,72.4,60.0,29.84,West,268,7.0,14.0,65,0.00,BKN,,0.00,WeatherDisplay:10.37,2013-08-04 17:50:00,
2013-08-04 13:59:00,72.2,59.3,29.84,West,277,8.0,18.0,64,0.00,BKN,,0.00,WeatherDisplay:10.37,2013-08-04 17:59:00,
2013-08-04 14:10:00,73.5,60.6,29.84,West,263,10.0,20.0,64,0.00,BKN,,0.00,WeatherDisplay:10.37,2013-08-04 18:10:00,
2013-08-04 14:20:00,72.7,60.7,29.84,West,278,7.0,16.0,66,0.00,BKN,,0.00,WeatherDisplay:10.37,2013-08-04 18:20:00,
2013-08-04 14:30:00,74.3,59.0,29.84,WNW,285,6.0,16.0,59,0.00,BKN,,0.00,WeatherDisplay:10.37,2013-08-04 18:30:00,
2013-08-04 14:40:00,74.5,59.2,29.84,NW,315,6.0,16.0,59,0.00,BKN,,0.00,WeatherDisplay:10.37,2013-08-04 18:40:00,
2013-08-04 14:50:00,75.2,59.0,29.83,WNW,294,7.0,18.0,57,0.00,BKN,,0.00,WeatherDisplay:10.37,2013-08-04 18:50:00,
2013-08-04 15:00:00,75.4,56.5,29.83,WNW,294,9.0,16.0,52,0.00,BKN,,0.00,WeatherDisplay:10.37,2013-08-04 19:00:00,
2013-08-04 15:10:00,76.1,57.7,29.83,WNW,284,12.0,16.0,53,0.00,SCT,,0.00,WeatherDisplay:10.37,2013-08-04 19:10:00,
2013-08-04 15:20:00,76.0,58.2,29.83,WNW,289,10.0,16.0,54,0.00,SCT,,0.00,WeatherDisplay:10.37,2013-08-04 19:20:00,
2013-08-04 15:29:00,75.3,57.0,29.82,NW,309,9.0,15.0,53,0.00,SCT,,0.00,WeatherDisplay:10.37,2013-08-04 19:29:00,
2013-08-04 15:40:00,76.1,57.7,29.83,WNW,294,15.0,21.0,53,0.00,SCT,,0.00,WeatherDisplay:10.37,2013-08-04 19:40:00,
2013-08-04 15:50:00,76.2,57.3,29.82,WNW,285,10.0,20.0,52,0.00,SCT,,0.00,WeatherDisplay:10.37,2013-08-04 19:50:00,
2013-08-04 16:00:00,76.9,56.8,29.82,WNW,284,10.0,27.0,50,0.00,SCT,,0.00,WeatherDisplay:10.37,2013-08-04 20:00:00,
2013-08-04 16:10:00,77.0,54.6,29.82,NW,307,12.0,21.0,46,0.00,SCT,,0.00,WeatherDisplay:10.37,2013-08-04 20:10:00,
2013-08-04 16:20:00,76.4,54.1,29.82,WNW,287,17.0,23.0,46,0.00,SCT,,0.00,WeatherDisplay:10.37,2013-08-04 20:20:00,
2013-08-04 16:30:00,75.4,54.9,29.82,WNW,297,13.0,26.0,49,0.00,SCT,,0.00,WeatherDisplay:10.37,2013-08-04 20:30:00,
2013-08-04 16:40:00,73.7,55.0,29.82,WNW,291,16.0,22.0,52,0.00,SCT,,0.00,WeatherDisplay:10.37,2013-08-04 20:40:00,
2013-08-04 16:50:00,75.3,56.4,29.83,WNW,290,12.0,31.0,52,0.00,SCT,,0.00,WeatherDisplay:10.37,2013-08-04 20:50:00,
2013-08-04 17:40:00,73.8,55.6,29.84,NW,313,7.0,30.0,53,0.00,SCT,,0.00,WeatherDisplay:10.37,2013-08-04 21:40:00,
2013-08-04 17:50:00,73.0,54.3,29.85,WNW,296,17.0,31.0,52,0.00,SCT,,0.00,WeatherDisplay:10.37,2013-08-04 21:50:00,
2013-08-04 18:00:00,72.6,55.0,29.85,WSW,248,8.0,21.0,54,0.00,SCT,,0.00,WeatherDisplay:10.37,2013-08-04 22:00:00,
2013-08-04 18:10:00,72.2,55.1,29.85,WNW,298,9.0,31.0,55,0.00,SCT,,0.00,WeatherDisplay:10.37,2013-08-04 22:10:00,
2013-08-04 18:20:00,72.2,54.1,29.85,NW,307,14.0,31.0,53,0.00,SCT,,0.00,WeatherDisplay:10.37,2013-08-04 22:20:00,
2013-08-04 18:30:00,71.9,53.8,29.85,West,265,9.0,23.0,53,0.00,SCT,,0.00,WeatherDisplay:10.37,2013-08-04 22:30:00,
2013-08-04 18:40:00,71.6,54.1,29.86,West,274,13.0,33.0,54,0.00,SCT,,0.00,WeatherDisplay:10.37,2013-08-04 22:40:00,
2013-08-04 18:50:00,71.4,53.9,29.86,NW,305,8.0,16.0,54,0.00,SCT,,0.00,WeatherDisplay:10.37,2013-08-04 22:50:00,
2013-08-04 19:00:00,71.0,53.0,29.87,WNW,295,9.0,26.0,53,0.00,SCT,,0.00,WeatherDisplay:10.37,2013-08-04 23:00:00,
2013-08-04 19:10:00,70.7,53.2,29.87,WNW,290,8.0,21.0,54,0.00,SCT,,0.00,WeatherDisplay:10.37,2013-08-04 23:10:00,
2013-08-04 19:20:00,70.4,53.5,29.88,West,271,16.0,20.0,55,0.00,SCT,,0.00,WeatherDisplay:10.37,2013-08-04 23:20:00,
2013-08-04 19:30:00,70.0,54.0,29.88,West,278,5.0,18.0,57,0.00,SCT,,0.00,WeatherDisplay:10.37,2013-08-04 23:30:00,
2013-08-04 19:40:00,69.7,53.8,29.89,West,280,6.0,24.0,57,0.00,SCT,,0.00,WeatherDisplay:10.37,2013-08-04 23:40:00,
2013-08-04 19:50:00,69.2,54.3,29.89,NW,317,9.0,18.0,59,0.00,SCT,,0.00,WeatherDisplay:10.37,2013-08-04 23:50:00,
2013-08-04 20:00:00,68.7,53.8,29.90,WNW,297,12.0,15.0,59,0.00,SCT,,0.00,WeatherDisplay:10.37,2013-08-05 00:00:00,
2013-08-04 20:10:00,68.3,53.9,29.90,NNW,330,5.0,16.0,60,0.00,SCT,,0.00,WeatherDisplay:10.37,2013-08-05 00:10:00,
2013-08-04 20:20:00,68.0,54.0,29.91,NW,316,7.0,16.0,61,0.00,SCT,,0.00,WeatherDisplay:10.37,2013-08-05 00:20:00,
2013-08-04 20:30:00,67.6,54.1,29.91,WNW,303,6.0,12.0,62,0.00,SCT,,0.00,WeatherDisplay:10.37,2013-08-05 00:30:00,
2013-08-04 20:40:00,67.4,54.4,29.92,WNW,285,5.0,14.0,63,0.00,SCT,,0.00,WeatherDisplay:10.37,2013-08-05 00:40:00,
2013-08-04 20:50:00,67.3,54.2,29.92,WNW,299,9.0,21.0,63,0.00,SCT,,0.00,WeatherDisplay:10.37,2013-08-05 00:50:00,
2013-08-04 21:00:00,67.2,54.6,29.92,WNW,283,8.0,14.0,64,0.00,SCT,,0.00,WeatherDisplay:10.37,2013-08-05 01:00:00,
2013-08-04 21:10:00,67.0,54.8,29.93,WNW,287,8.0,15.0,65,0.00,SCT,,0.00,WeatherDisplay:10.37,2013-08-05 01:10:00,
2013-08-04 21:20:00,67.0,54.8,29.93,NW,305,3.0,14.0,65,0.00,SCT,,0.00,WeatherDisplay:10.37,2013-08-05 01:20:00,
2013-08-04 21:30:00,66.9,55.2,29.93,WNW,300,5.0,12.0,66,0.00,SCT,,0.00,WeatherDisplay:10.37,2013-08-05 01:30:00,
2013-08-04 21:40:00,66.6,55.3,29.94,NW,325,5.0,14.0,67,0.00,SCT,,0.00,WeatherDisplay:10.37,2013-08-05 01:40:00,
2013-08-04 21:50:00,66.5,55.2,29.94,NW,306,3.0,20.0,67,0.00,SCT,,0.00,WeatherDisplay:10.37,2013-08-05 01:50:00,
2013-08-04 22:00:00,65.9,55.0,29.94,NW,312,8.0,12.0,68,0.00,SCT,,0.00,WeatherDisplay:10.37,2013-08-05 02:00:00,
2013-08-04 22:10:00,65.6,55.2,29.94,NW,313,12.0,16.0,69,0.00,BKN,,0.00,WeatherDisplay:10.37,2013-08-05 02:10:00,
2013-08-04 22:20:00,65.3,55.3,29.94,NNW,332,8.0,14.0,70,0.00,BKN,,0.00,WeatherDisplay:10.37,2013-08-05 02:20:00,
2013-08-04 22:30:00,64.9,54.9,29.94,NW,324,6.0,9.0,70,0.00,BKN,,0.00,WeatherDisplay:10.37,2013-08-05 02:30:00,
2013-08-04 22:40:00,64.4,54.8,29.94,WNW,290,3.0,6.0,71,0.00,BKN,,0.00,WeatherDisplay:10.37,2013-08-05 02:40:00,
2013-08-04 22:50:00,64.2,54.2,29.94,WNW,296,7.0,12.0,70,0.00,BKN,,0.00,WeatherDisplay:10.37,2013-08-05 02:50:00,
2013-08-04 23:00:00,63.9,54.3,29.95,WNW,286,3.0,9.0,71,0.00,BKN,,0.00,WeatherDisplay:10.37,2013-08-05 03:00:00,
2013-08-04 23:10:00,63.7,54.5,29.95,WNW,292,1.0,10.0,72,0.00,SCT,,0.00,WeatherDisplay:10.37,2013-08-05 03:10:00,
2013-08-04 23:20:00,63.2,54.4,29.95,NW,307,3.0,9.0,73,0.00,SCT,,0.00,WeatherDisplay:10.37,2013-08-05 03:20:00,
2013-08-04 23:30:00,62.9,54.9,29.95,WNW,292,6.0,10.0,75,0.00,SCT,,0.00,WeatherDisplay:10.37,2013-08-05 03:30:00,
2013-08-04 23:40:00,62.7,55.0,29.95,WNW,291,5.0,12.0,76,0.00,SCT,,0.00,WeatherDisplay:10.37,2013-08-05 03:40:00,
2013-08-04 23:50:00,62.8,55.5,29.96,NW,308,5.0,9.0,77,0.00,SCT,,0.00,WeatherDisplay:10.37,2013-08-05 03:50:00,